Probability
0 0 0 0 0 0 0 0 0 0 0 0 0 0 0 0 0 0 0 0 0 1 1 2 1 1 0 0 0 0 0 0 0 0 0 0 0 0 0 0 0 0 0 0
0 0 0 0 0 0 0 0 0 0 0 0 0 0 0 0 0 0 0 0 0 0 1 1 1 1 1 0 0 0 0 0 0 0 0 0 0 0 0 0 0 0 0 0
0 0 0 0 0 0 0 0 0 0 0 0 0 0 0 0 0 0 0 0 0 0 0 1 2 2 2 1 0 0 0 0 0 0 0 0 0 0 0 0 0 0 0 0
0 0 0 0 0 0 0 0 0 0 0 0 0 0 0 0 0 0 0 0 0 0 0 0 1 2 2 1 0 0 0 0 0 0 0 0 0 0 0 0 0 0 0 0
0 0 0 0 0 0 0 0 0 0 0 0 0 0 0 0 0 0 0 0 0 0 0 0 0 1 1 1 0 0 0 0 0 0 0 0 0 0 0 0 1 0 0 0
0 0 0 0 0 0 0 0 0 0 0 0 0 0 0 0 0 0 0 0 0 0 0 0 0 1 2 1 0 0 0 0 0 0 0 0 0 0 0 0 0 0 0 0
0 0 0 0 0 0 0 0 0 0 0 0 0 0 0 0 0 0 0 0 0 0 0 0 1 1 2 2 0 0 0 0 0 0 0 0 0 0 0 0 1 1 1 0
0 0 0 0 0 0 0 0 0 0 0 0 0 0 0 0 0 0 0 0 0 0 0 0 0 1 2 2 1 0 0 0 0 0 0 0 0 0 0 0 1 2 1 1
0 0 0 0 0 0 0 0 0 0 0 0 0 0 0 0 0 0 0 0 0 0 0 0 0 0 1 2 2 1 0 0 0 0 0 0 0 0 0 0 2 2 2 1
0 0 0 0 0 0 0 0 0 0 0 0 0 0 0 0 0 0 0 0 0 0 0 1 1 1 1 2 2 1 0 0 0 0 0 0 0 0 0 1 2 3 2 1
0 0 0 0 0 0 0 0 0 0 0 0 0 0 0 0 0 0 0 0 0 0 0 1 1 1 1 2 2 1 0 0 0 0 0 0 0 0 0 1 2 2 2 1
0 0 0 0 0 0 0 0 0 0 0 0 0 0 0 0 0 0 0 0 0 0 0 0 1 2 2 3 2 1 0 0 0 0 0 0 0 0 0 0 1 1 1 0
0 0 0 0 0 0 0 0 0 0 0 0 0 0 0 0 0 0 0 0 0 0 0 0 1 2 3 3 3 1 0 0 0 0 0 0 0 0 0 0 0 0 0 0
0 0 0 0 0 0 0 0 0 0 0 0 0 0 0 0 0 0 0 0 0 0 0 1 2 3 3 3 3 2 1 0 0 0 0 0 0 0 0 0 0 0 0 0
0 0 0 0 0 0 0 0 0 0 0 0 0 0 0 0 0 0 0 0 0 0 1 2 3 3 3 2 3 2 1 0 0 0 0 0 0 0 0 0 0 0 0 0
0 0 0 0 0 0 0 0 0 0 0 0 0 0 0 1 0 0 0 0 0 0 1 2 3 3 3 3 3 2 1 0 0 1 0 0 0 0 0 0 0 0 0 0
0 0 0 0 0 0 0 0 0 0 0 0 0 0 0 0 0 0 0 0 0 0 0 1 1 2 3 3 2 1 0 0 0 1 1 0 0 0 0 0 0 0 0 0
0 0 0 0 0 0 0 0 0 0 0 0 0 0 0 0 0 0 0 0 0 0 0 0 0 1 1 2 1 0 0 0 1 2 1 0 0 0 0 0 0 0 0 0
0 0 0 0 0 0 0 0 0 0 0 0 0 0 0 0 0 0 0 0 0 0 0 0 0 0 0 0 0 0 0 0 1 2 1 0 0 0 0 0 0 0 0 0
0 0 0 0 0 0 0 0 0 0 0 0 0 0 0 0 0 0 0 0 0 0 0 0 0 0 0 0 0 0 0 0 1 1 0 0 0 0 0 0 0 0 0 0
0 0 0 0 0 0 0 0 0 0 0 0 0 0 0 0 0 0 0 0 0 0 0 0 0 0 0 0 0 0 0 0 0 0 0 0 0 0 0 0 0 0 0 0
0 0 0 0 0 0 0 0 0 0 0 0 0 0 0 0 0 0 0 0 0 0 0 0 0 0 0 0 0 0 0 0 0 0 0 0 0 0 0 0 0 0 0 0
0 0 0 0 0 0 0 0 0 0 0 0 0 0 0 0 0 0 0 0 0 0 0 0 0 0 0 0 0 0 0 0 0 0 0 0 0 0 0 0 0 0 0 0
0 0 0 0 0 0 0 0 0 0 0 0 0 0 0 0 0 0 0 0 0 0 0 0 0 0 0 0 0 0 0 0 0 0 0 0 0 0 0 0 0 0 0 0
0 0 0 0 0 0 0 0 0 0 0 0 0 0 0 0 0 0 0 0 0 0 0 0 0 0 0 0 0 0 0 0 0 0 0 0 0 0 0 0 0 0 0 0
0 0 0 0 0 0 0 0 0 0 0 0 0 0 0 0 0 0 0 0 0 0 0 0 0 0 0 0 0 0 0 0 0 0 0 0 0 0 0 0 0 0 0 0
0 0 0 0 0 0 0 0 0 0 0 0 0 0 0 0 0 0 0 0 0 0 0 0 0 0 0 0 0 0 0 0 0 0 0 0 0 0 0 0 0 0 0 0
Wind_Speed
8 7 8 9 10 12 13 12 11 9 9 8 6 5 3 3 4 5 7 8 8 8 8 9 9 9 9 9 9 9 8 8 7 7 5 5 4 4 4 4 4 4 3 3
9 8 9 11 13 13 14 13 13 12 11 7 6 5 4 4 5 6 7 7 8 8 9 9 9 9 9 9 9 9 9 8 7 7 6 5 5 5 4 4 4 4 4 3
8 6 8 13 12 13 13 12 12 13 9 5 5 5 5 4 5 6 6 7 7 8 8 9 9 10 10 10 9 9 8 8 7 7 7 6 6 5 5 5 5 4 4 3
6 7 11 5 3 7 10 11 11 10 7 6 6 6 5 4 5 5 6 6 7 7 7 8 8 9 10 10 9 9 8 8 8 7 7 6 6 6 6 5 5 4 4 4
6 8 8 5 5 6 8 9 8 9 7 5 4 4 5 4 5 5 5 5 6 6 7 7 8 9 9 10 9 9 8 8 8 8 8 7 7 6 6 5 5 5 4 4
7 8 7 3 2 3 7 8 5 6 6 5 5 6 3 2 4 4 4 4 4 5 6 7 8 9 9 9 9 9 8 8 8 8 8 8 7 6 5 5 5 4 4 4
10 9 6 1 1 4 7 2 1 5 6 7 7 5 2 2 3 3 3 4 5 5 5 6 7 9 9 9 9 8 7 7 7 7 8 7 6 5 5 5 4 5 4 4
8 9 6 3 4 5 3 3 3 5 5 6 6 3 2 2 3 3 3 4 5 5 5 5 7 8 9 8 7 7 7 7 7 7 6 6 6 5 5 5 5 5 4 4
6 4 1 3 4 4 4 4 4 5 6 6 6 4 4 4 3 3 3 4 5 5 5 5 6 7 8 7 7 7 7 7 7 7 6 6 6 6 5 5 4 4 4 4
7 7 5 5 5 5 5 5 5 4 5 5 5 5 4 4 3 3 4 4 5 5 5 5 5 6 6 6 7 8 8 7 7 7 6 6 5 5 5 5 5 4 4 4
9 7 5 5 6 5 5 5 4 3 4 5 5 5 5 4 4 3 4 4 4 5 5 5 5 6 6 6 7 8 7 7 7 6 6 5 5 4 5 5 4 4 4 4
6 5 5 5 4 4 4 4 3 3 3 3 4 4 4 4 3 4 4 4 4 4 4 4 5 5 6 6 7 7 6 6 5 5 5 5 5 4 2 2 3 3 2 2
6 5 6 5 5 5 4 4 4 3 3 3 3 3 4 3 3 4 4 4 4 4 4 4 5 5 5 6 7 7 6 6 5 5 5 5 5 5 4 3 3 3 3 3
4 4 5 4 4 4 4 3 3 2 2 2 2 2 3 3 3 4 4 4 3 3 4 4 4 4 4 5 6 6 6 5 5 5 5 5 5 5 4 4 4 3 4 4
5 5 5 4 3 3 2 2 2 1 1 1 1 2 2 3 3 3 3 3 3 3 3 4 4 4 4 4 5 5 5 4 4 4 4 4 4 4 4 5 4 3 3 3
4 3 3 3 3 3 2 2 2 2 2 1 1 1 2 2 2 2 2 3 3 3 3 3 4 3 4 4 4 4 4 5 4 4 4 5 4 4 4 4 4 4 4 3
3 3 4 4 4 3 3 3 2 2 2 2 2 1 2 2 2 2 2 2 2 2 2 3 3 3 3 4 4 3 3 4 6 5 4 5 4 5 4 4 4 4 3 3
5 5 5 5 5 4 4 3 3 2 2 2 2 2 2 2 2 2 1 1 1 1 1 2 2 3 3 4 3 3 3 3 4 4 4 4 4 4 4 4 4 4 3 3
3 3 3 4 4 4 4 3 3 3 2 3 3 3 2 2 2 2 2 2 2 2 1 1 1 3 3 3 2 3 3 3 3 3 3 4 4 4 4 4 4 4 4 3
3 2 2 2 2 2 3 3 3 2 3 3 3 3 2 2 2 2 2 1 1 1 1 0 1 2 2 3 2 2 3 3 3 3 3 3 4 4 3 3 4 4 4 3
3 2 2 2 2 2 2 2 2 3 3 3 3 3 2 2 2 2 2 1 0 1 1 0 1 1 1 1 2 2 2 2 3 3 3 3 3 3 3 3 3 3 3 3
3 2 2 2 2 1 1 1 2 3 3 3 3 2 2 2 2 1 1 1 0 1 1 1 0 1 0 1 2 2 2 2 2 2 3 3 3 3 3 3 3 3 3 3
3 2 2 2 2 1 1 1 2 2 3 3 3 3 2 2 1 1 1 0 0 1 1 1 1 1 0 1 1 1 2 2 2 2 2 3 3 3 3 3 3 2 2 2
3 3 2 1 1 0 0 0 1 1 2 2 2 3 2 2 1 0 0 0 0 0 1 1 2 1 1 1 1 1 1 1 2 2 2 2 2 2 2 2 2 2 2 3
2 2 1 1 1 1 1 1 1 1 1 1 2 2 1 1 1 1 1 1 1 0 0 1 1 1 1 1 1 1 1 1 1 1 1 1 1 1 2 2 2 2 2 2
2 1 1 2 1 1 1 1 1 1 1 1 1 1 1 1 1 1 1 1 1 0 0 1 1 1 1 1 1 1 1 1 1 1 1 1 1 1 1 1 1 2 2 2
1 1 1 1 1 1 0 1 1 1 1 1 1 0 1 1 1 1 1 1 1 1 0 0 1 1 1 1 1 1 1 1 1 1 1 1 1 1 1 2 2 1 1 2
Wind_Direction
246 245 235 237 232 224 230 241 251 254 257 265 273 273 264 221 188 179 180 180 181 181 180 179 181 181 181 183 181 180 182 185 187 185 181 188 191 192 192 192 193 184 188 192
237 235 233 241 238 235 237 240 246 255 259 270 274 260 248 223 195 192 191 188 188 186 183 183 181 180 179 182 183 182 183 185 184 183 178 184 189 192 185 186 190 184 194 196
236 231 238 238 231 227 228 229 238 247 254 254 249 242 241 226 210 206 199 193 192 191 189 187 183 179 181 182 180 184 184 180 181 184 183 187 188 189 189 190 190 192 194 196
238 224 236 234 208 223 230 233 235 245 252 249 252 250 243 236 226 215 201 197 197 196 190 187 183 179 180 178 180 185 185 181 183 189 186 186 189 191 197 197 193 200 198 198
232 236 248 235 207 217 231 235 234 238 246 253 260 236 230 235 237 227 212 203 197 195 188 183 180 177 175 176 181 185 187 187 186 187 186 186 190 196 200 199 197 200 195 198
229 236 241 223 176 237 238 236 220 229 232 227 225 235 231 219 225 220 207 195 184 186 184 181 178 176 177 178 182 189 190 190 184 185 185 187 191 191 193 196 199 200 196 203
231 238 250 279 166 198 222 263 278 238 225 217 230 257 293 215 204 197 185 179 172 174 177 178 176 176 181 182 187 190 186 185 181 182 185 184 182 183 185 191 194 199 198 204
223 233 235 125 169 210 272 332 284 247 227 224 236 253 246 214 196 177 173 170 169 169 170 171 175 179 182 187 187 181 178 180 181 181 181 180 176 180 186 187 192 197 200 200
231 243 317 201 227 266 292 282 277 254 239 232 235 240 231 215 197 183 178 170 171 170 166 168 174 184 185 183 179 174 174 178 179 177 178 180 180 180 184 189 196 200 200 206
242 243 249 249 259 273 280 284 283 268 245 232 235 232 218 208 196 187 178 174 175 174 172 172 175 185 189 177 175 175 176 178 178 178 179 180 183 187 189 193 201 205 210 214
245 255 261 255 260 275 280 279 276 270 252 239 234 222 206 198 192 185 176 174 178 183 183 179 178 185 183 179 177 179 179 178 178 180 179 184 184 190 198 199 205 211 214 214
245 257 259 265 266 279 277 272 266 257 255 250 231 213 200 195 189 182 176 173 179 185 185 182 182 183 179 179 183 183 180 181 179 177 178 183 182 179 166 206 177 204 227 237
267 281 275 276 279 275 274 276 270 259 246 239 232 208 194 187 186 182 178 178 181 182 188 185 185 183 177 180 186 188 184 179 179 180 180 185 188 188 183 172 171 194 199 201
258 265 260 259 273 277 274 268 256 255 255 240 212 190 181 176 176 181 183 183 178 179 189 186 183 178 173 176 183 188 184 177 180 183 185 189 191 194 194 192 192 194 190 194
255 263 264 271 270 267 262 236 215 200 197 192 169 172 168 169 172 178 175 174 171 175 182 180 180 178 172 177 182 185 181 177 181 183 187 191 192 194 195 197 203 199 190 172
258 263 264 263 261 262 255 237 224 200 187 180 166 174 170 159 147 149 161 172 175 180 190 189 187 179 174 178 182 186 182 172 180 185 187 188 192 195 196 199 205 203 203 190
247 249 258 267 266 264 260 254 245 223 197 180 175 178 164 145 138 145 161 180 194 194 201 202 191 174 178 181 183 184 181 173 180 191 192 191 193 197 199 201 206 207 205 179
262 259 252 251 247 247 253 253 242 219 203 183 168 167 168 166 164 168 167 170 171 185 224 220 195 181 181 180 185 190 186 185 190 195 194 195 196 201 203 205 205 204 197 171
270 271 268 264 257 251 249 241 233 216 195 178 169 169 178 184 180 180 169 167 184 214 251 251 190 198 183 172 182 194 193 190 190 193 195 186 196 201 203 206 205 203 200 189
270 274 277 277 273 262 254 246 229 208 188 178 171 163 165 171 175 176 174 187 229 270 275 270 202 200 189 173 179 191 190 191 189 189 192 196 199 200 202 204 207 207 203 200
271 271 264 268 282 283 269 245 210 193 185 181 179 174 166 153 155 167 178 201 291 357 324 230 208 198 187 158 176 186 185 187 190 198 200 200 199 201 203 204 207 208 206 206
276 270 270 274 276 286 285 248 196 184 177 173 173 170 158 144 140 143 168 237 302 22 289 230 212 61 78 168 189 186 187 191 196 200 205 206 204 202 202 204 208 208 207 212
287 286 288 282 273 283 284 236 188 182 183 181 180 180 180 177 178 170 192 290 280 334 294 274 76 87 178 202 179 172 187 199 203 205 207 208 208 208 206 204 207 209 210 213
302 305 305 302 290 193 192 210 189 184 182 183 187 186 181 171 175 187 305 104 327 267 288 97 127 161 235 219 186 184 191 202 203 207 208 210 208 209 213 212 205 206 214 218
305 305 298 282 253 242 226 191 168 148 139 149 170 187 191 192 205 202 173 162 146 197 198 148 160 199 223 209 203 198 199 207 203 202 202 203 208 213 216 217 211 207 208 210
305 308 310 300 303 276 223 206 203 181 165 161 159 158 140 138 166 174 151 153 161 169 233 206 200 216 222 215 217 213 204 186 185 190 199 204 205 211 212 206 219 218 210 206
297 310 327 324 319 285 240 203 195 193 192 183 181 194 183 168 158 155 153 159 166 167 174 229 240 236 213 208 221 227 221 214 206 198 201 208 212 212 208 208 210 211 212 206